{"data":{"norad_id":54230,"epoch":"2026-05-25T02:48:20.710368Z","epoch_age_seconds":61634,"freshness":"FRESH","line1":"1 54230U 22148A   26145.11690637 -.00000084  00000+0  00000+0 0  9993","line2":"2 54230   0.0148 351.0803 0002112  84.9894  11.9177  1.00271962 13151","mean_motion":1.00271962,"eccentricity":0.0002112,"inclination_deg":0.0148,"raan_deg":351.0803,"arg_perigee_deg":84.9894,"mean_anomaly_deg":11.9177,"bstar":0,"rev_number":1315,"period_min":1436.0943690321,"perigee_km":35777.640160828,"apogee_km":35795.450522649,"semimajor_km":42164.682341738,"source":"CELESTRAK","updated_at":"2026-05-25T13:38:14.112180Z"}}